Flag for Panama Weather past 2 weeks in Santiago de Veraguas, Panama

Now
90 °F

Passing clouds.


Feels Like: 95 °F
Forecast: 70 / 100 °F
Wind: 7 mph from Southwest

Location: David Airport

Current Time: Feb 27, 2015 at 12:27:41 PM

Latest Report: Feb 27, 2015 at 12:00 PM


Visibility: N/A

Pressure: 29.80 "Hg

Humidity: 52%

Dew point: 70 °F

Location of Santiago de VeraguasLocation

Historic Weather in Santiago de Veraguas — Graph

°F

Santiago de Veraguas temperature yesterday

Maximum temperature yesterday: 91 °F (at 1:00 PM)
Minimum temperature yesterday: 72 °F (at 7:00 AM)
Average temperature yesterday: 85 °F

Past Weeks' High & Low Weather Summary

 TemperatureHumidityPressure
High97 °F (Feb 22, 2:00 PM)94% (Feb 13, 7:00 AM)29.89 "Hg (Feb 13, 7:00 AM)
Low72 °F (Feb 26, 7:00 AM)28% (Feb 22, 2:00 PM)29.71 "Hg (Feb 16, 3:00 PM)
Average86 °F57%29.80 "Hg
* Reported Feb 12 11:00 AM — Feb 27 11:00 AM, Santiago de Veraguas, Weather by CustomWeather, © 2015

Note: Actual official high and low records may vary slightly from our data, if they occured in-between our weather recording intervals... More about our weather records

Advertising

Santiago de Veraguas weather history for previous 24 hours

 ConditionsComfort  
Time TempWeatherWind HumidityBarometerVisibility
11:00 AM
Fri, Feb 27
88 °FSunny.No wind62%29.83 "Hg10 mi
10:00 AM88 °FClear.No wind59%29.86 "Hg6 mi
9:00 AM82 °FClear.No wind70%29.86 "Hg6 mi
8:00 AM77 °FSunny.No wind83%29.83 "Hg10 mi
7:00 AM73 °FPassing clouds.No wind89%29.80 "HgN/A
6:00 AMN/AClear.No windN/AN/A10 mi
10:00 PM
Thu, Feb 26
82 °FPassing clouds.No wind79%29.83 "HgN/A
9:00 PM82 °FPassing clouds.No wind79%29.80 "HgN/A
8:00 PM84 °FPassing clouds.No wind74%29.80 "HgN/A
7:00 PM84 °FPartly cloudy.No wind70%29.77 "HgN/A
6:00 PM86 °FPassing clouds.7 mph62%29.74 "HgN/A
5:00 PM90 °FPassing clouds.9 mph52%29.74 "HgN/A
4:00 PM91 °FPassing clouds.10 mph46%29.71 "HgN/A
3:00 PM91 °FPassing clouds.10 mph46%29.74 "HgN/A
2:00 PM91 °FPassing clouds.9 mph49%29.74 "HgN/A
1:00 PM91 °FPassing clouds.7 mph49%29.80 "HgN/A
12:00 PM90 °FPassing clouds.No wind49%29.83 "HgN/A
Weather by CustomWeather, © 2015

See weather overviewHow to use our weather pages